Location: Wiesloch
(49.2950°N, 8.6985°E)
Time: 21:09:03
(UTC+00:00)

Daily predictions for brighter satellites

Satellite Brightness Start Highest point End
(mag) Time Altitude Azimuth Time Altitude Azimuth Time Altitude Azimuth
Cosmos 1864 Rocket 4.5 16:56:27 10° N 17:02:33 63° ENE 17:08:38 10° SSE
USA 267 3.4 16:56:12 10° ENE 17:02:47 83° NNW 17:09:20 10° WSW
Cosmos 2297 Rocket 3.7 17:02:22 10° SE 17:05:29 15° E 17:08:35 10° ENE
USA 290 3.2 17:03:14 10° SSE 17:06:00 28° ESE 17:08:48 10° NE
Cosmos 1441 Rocket 2.9 17:02:46 10° SSW 17:06:08 87° WNW 17:09:29 10° NNE
In-Cosmos 22 Rocket 4.2 17:01:08 10° S 17:06:35 76° E 17:12:14 10° NNE
Cosmos 841 Rocket 4.3 17:02:23 10° SW 17:07:27 55° WNW 17:12:32 10° NNE
Cosmos 1814 Rocket 4.4 17:04:04 10° S 17:09:02 43° ESE 17:13:59 10° NE
SAR-Lupe-4 3.8 17:06:16 10° SE 17:09:42 47° ENE 17:13:09 10° N
SAR-Lupe-5 4.4 17:07:13 10° NNE 17:09:43 46° ESE 17:12:06 10° S
ATLAS 3B R/B 4.2 17:02:32 10° NW 17:09:56 48° WSW 17:16:56 10° S
Cosmos 1125 Rocket 4.2 17:07:59 10° N 17:12:40 33° NE 17:17:19 10° ESE
IRS-1C 4.3 17:08:06 10° SSE 17:13:26 85° WSW 17:18:48 10° NNW
YAOGAN 1 2.7 17:16:45 10° SE 17:20:50 49° ENE 17:24:58 10° N
Cosmos 2123 Rocket 4.0 17:15:23 10° S 17:21:41 77° E 17:28:00 10° NNE
Okean 2 Rocket 3.5 17:18:25 10° N 17:22:35 39° ENE 17:26:41 10° SE
Cosmos 1900 4.4 17:17:49 10° SW 17:22:55 88° SE 17:28:00 10° NE
NOSS 3-3 (C) 4.4 17:18:44 10° S 17:23:17 32° ESE 17:28:31 10° NE
NOAA 6 4.5 17:19:10 10° SE 17:23:54 39° ENE 17:28:41 10° N
Okean 1 Rocket 3.6 17:21:57 10° N 17:26:04 37° ENE 17:30:07 10° SE
Spot 4 Rocket 4.2 17:21:12 10° SE 17:26:06 49° ENE 17:31:02 10° N
COSMOS 2428 2.7 17:22:29 10° NNW 17:28:13 68° ENE 17:33:55 10° SE
Cosmos 1980 4.2 17:26:32 10° NNW 17:31:50 38° NE 17:37:05 10° ESE
Sich 1 Rocket 4.0 17:27:49 10° N 17:32:08 41° ENE 17:36:27 10° SE
ARIANE 5 R/B 3.3 17:27:41 10° S 17:32:44 57° WSW 17:37:44 10° NNW
Cosmos 158 Rocket 3.8 17:32:11 10° S 17:36:59 67° ESE 17:41:50 10° NNE
Cosmos 2237 Rocket 2.7 17:32:08 10° NNW 17:37:28 39° NE 17:42:46 10° ESE
Aureole 3 Rocket 3.5 17:33:33 10° N 17:37:32 32° ENE 17:40:41 10° SE
ATLAS 5 CENTAUR R/B 2.5 17:34:50 10° NW 17:39:01 54° SW 17:44:11 10° SSE
Cosmos 192 4.2 17:34:22 10° NNW 17:39:16 75° ENE 17:44:08 10° SSE
SeaSat 1 3.4 17:34:58 10° SSE 17:39:44 52° WSW 17:44:32 10° NW
Cosmos 1378 Rocket 3.5 17:35:53 10° S 17:40:12 85° E 17:44:31 10° N
USA 234 4.5 17:34:41 10° SSE 17:40:50 43° SW 17:47:02 10° WNW
Resurs 01 Rocket 2.1 17:37:08 10° SE 17:41:12 38° ENE 17:45:18 10° N
SKYMED 2 3.5 17:38:39 10° NNE 17:43:02 82° ESE 17:47:23 10° SSW
GP-B 3.4 17:39:47 10° S 17:44:07 71° W 17:48:30 10° N
Cosmos 2219 Rocket 4.0 17:42:03 10° NW 17:47:03 35° WSW 17:52:02 10° S
COSMO-SKYMED 1 2.5 17:43:17 10° NNE 17:47:20 53° E 17:51:21 10° S
Cosmos 2228 4.3 17:45:39 10° NNE 17:48:42 19° ENE 17:49:16 19° ENE
Cosmos 2292 Rocket 3.8 17:46:57 10° SSW 17:49:43 43° WNW 17:52:38 10° N
PSLV R/B 3.4 17:46:56 10° SSE 17:51:00 63° ENE 17:55:04 10° N
NOSS 3-3 (A) 3.8 17:46:52 10° SSW 17:51:54 58° ESE 17:57:36 11° NE
Cosmos 2322 3.9 17:46:44 10° NNW 17:52:27 75° WSW 17:58:09 10° SSE
USA 306 1.2 17:51:34 10° WNW 17:54:26 78° SSW 17:55:03 40° SE
Cosmos 2016 Rocket 4.4 17:48:17 10° NNW 17:54:28 69° W 18:00:42 10° S
Resurs 1-3 3.8 17:50:27 10° S 17:54:44 74° WSW 17:59:03 10° NNW
Cosmos 1025 Rocket 2.9 17:54:14 10° S 17:58:30 73° E 18:02:50 10° NNE
SJ-7 4.1 17:55:05 10° SSE 17:58:46 88° E 18:02:29 10° NNW
Cosmos 2285 Rocket 4.0 17:52:59 10° NNW 17:59:25 67° ENE 18:05:46 10° SE
SL-16 R/B 3.4 17:56:15 10° N 18:00:40 23° NE 18:02:27 20° ENE
Cosmos 2227 Rocket 3.5 18:00:23 10° SE 18:03:35 19° ESE 18:03:35 19° ESE
SJ-6B 2.7 18:05:12 14° SE 18:07:58 44° ENE 18:11:16 10° N
NOSS 3-4 (A) 3.9 18:03:14 10° NW 18:09:39 57° NE 18:15:10 19° ESE
SPOT 5 3.7 18:08:21 24° E 18:09:55 30° ENE 18:14:16 10° N
NOSS 3-4 (C) 3.9 18:03:29 10° NW 18:09:56 56° NE 18:15:23 19° ESE
Cosmos 2233 Rocket 4.3 18:04:13 10° NNW 18:10:26 70° W 18:16:41 10° S
CZ-2D R/B 4.1 18:08:49 10° S 18:12:38 55° W 18:16:34 10° NNW
Cosmos 1674 Rocket 4.1 18:10:25 10° SSW 18:14:45 62° WNW 18:19:09 10° N
Cosmos 1315 Rocket 4.4 18:12:56 10° NNW 18:16:24 35° W 18:19:52 10° SSW
Cosmos 1513 Rocket 4.5 18:12:08 10° N 18:18:22 64° ENE 18:24:39 10° SSE
Cosmos 1867 4.3 18:17:44 10° WSW 18:23:02 51° NW 18:27:56 12° NNE
ATLAS 2AS CENTAUR R/B 4.1 18:20:08 10° WNW 18:25:59 28° NNW 18:31:15 12° NE
CZ-4 R/B 3.2 18:28:09 16° NNE 18:28:09 16° NNE 18:29:11 10° N
CZ-4B R/B 4.2 18:26:45 25° NE 18:26:45 25° NE 18:30:43 10° N
Helios 1A Rocket 4.3 18:28:45 18° SSE 18:28:45 18° SSE 18:29:43 10° S
Lacrosse 5 rocket 2.0 18:23:51 10° W 18:27:09 38° NNW 18:28:21 29° NNE
Meteor 1-31 Rocket 4.1 18:32:59 23° NNE 18:32:59 23° NNE 18:34:32 10° N
CZ-4C R/B 2.0 18:28:11 10° SW 18:32:29 69° NW 18:36:09 21° NE
IRAS Rocket 4.2 18:28:59 10° SSE 18:34:35 87° WSW 18:40:16 10° NNW
CARTOSAT-1 4.4 18:30:41 10° S 18:34:45 49° W 18:38:51 10° NNW
CRYOSAT 2 4.3 18:32:42 10° N 18:37:37 90° ESE 18:42:31 10° S
USA 267 3.8 18:41:48 25° NE 18:45:28 49° N 18:51:42 10° W
Cosmos 1464 Rocket 3.9 18:39:45 10° N 18:46:10 71° E 18:52:27 10° SSE
CSL-04 Debris 4.2 18:44:38 36° SE 18:46:41 59° ENE 18:52:02 10° N
ERS-1 Rocket 4.2 18:48:48 26° NNE 18:48:48 26° NNE 18:51:39 10° N
Cosmos 2297 Rocket 2.1 18:42:57 10° SSW 18:48:38 86° ESE 18:52:37 20° NNE
Cosmos 1607 4.5 18:43:23 10° WSW 18:49:24 55° NW 18:54:10 17° NNE
Cosmos 1570 Rocket 3.9 18:44:20 10° SSW 18:49:36 78° ESE 18:52:48 24° NNE
CSL-04 Rocket 3.5 18:47:26 35° SE 18:49:36 66° ENE 18:54:51 10° N
BREEZE-M DEB (TANK) 4.4 18:46:55 10° W 18:50:55 63° SSW 18:56:52 26° SE
Cosmos 2344 3.9 18:43:50 10° S 18:50:56 36° ESE 18:51:12 36° ESE
Cosmos 1455 Rocket 3.4 18:47:28 10° NNW 18:51:43 62° W 18:55:57 10° S
Cosmos 1975 Rocket 3.9 18:48:02 10° S 18:50:38 35° SSE 18:50:38 35° SSE
DNEPR-1 R/B 3.9 18:48:47 10° NW 18:53:31 63° NE 18:54:12 57° E
PAYLOAD B 4.2 19:05:27 60° ENE 19:05:35 61° ENE 19:11:07 10° N
Cosmos 2208 Rocket 3.8 19:01:34 10° SSW 19:06:47 79° ESE 19:07:29 66° NE
Terra 3.6 19:11:53 20° N 19:11:53 20° N 19:13:32 10° N
NOSS 3-3 (C) 4.3 19:08:27 10° WSW 19:13:44 57° NW 19:16:44 30° NNE
Resurs 01 Rocket 3.8 19:14:00 10° SSW 19:17:40 26° W 19:21:22 10° NW
Cosmos 2237 Rocket 3.3 19:16:14 10° NW 19:21:34 42° WSW 19:25:52 15° S
Cosmos 44 Rocket 4.0 19:17:59 10° SSW 19:21:20 44° SSW 19:21:20 44° SSW
Cosmos 773 Rocket 4.1 19:18:54 10° SSW 19:24:10 73° WNW 19:25:06 58° N
Cosmos 2228 3.9 19:21:54 10° NNW 19:25:36 46° WNW 19:25:36 46° WNW
Orbus 7S? 4.2 19:21:55 10° WNW 19:28:58 60° WSW 19:28:58 60° WSW
Cosmos 2298 Rocket 4.5 19:29:01 10° NNW 19:34:12 57° WSW 19:34:43 55° SW
SL-16 R/B 2.6 19:39:49 10° NNW 19:44:20 58° NNW 19:44:20 58° NNW
Cosmos 2227 Rocket 3.1 19:41:56 10° SSW 19:45:30 41° SW 19:45:30 41° SW
SPOT 5 3.9 19:47:22 41° WSW 19:47:41 42° W 19:52:26 10° NNW
CZ-4 R/B 4.4 20:03:09 10° NW 20:03:09 10° NW 20:03:13 10° NW
Lacrosse 5 rocket 4.4 20:01:44 10° NW 20:01:47 10° NW 20:01:47 10° NW
CZ-4B R/B 4.4 20:08:36 36° NW 20:08:36 36° NW 20:11:54 10° NNW
BREEZE-M DEB (TANK) 4.1 19:57:37 10° W 20:10:46 62° SW 20:10:46 62° SW
ATLAS 2AS CENTAUR R/B 4.2 20:13:32 10° NW 20:18:40 25° N 20:18:40 25° N
CZ-4C R/B 4.0 20:17:43 10° WNW 20:21:07 24° NNW 20:21:07 24° NNW
USA 267 4.1 20:29:08 43° NNW 20:29:08 43° NNW 20:34:05 10° WNW
Cosmos 2297 Rocket 4.2 20:28:58 10° W 20:33:24 23° NW 20:34:29 22° NNW
